Location: Catstown
(52.4386°N, 7.2633°W)
Time: 21:39:03
(UTC+00:00)

Cosmos 1707 - Pass Details

Date: 18 September 2020
Orbit: 515 x 531 km, 82.5° (Epoch: 20 October)

Event Time Altitude Azimuth Distance (km) Brightness Sun altitude
Rises 19:13:40 0° 354° (N) 2,657 6.6 -6.5°
Reaches altitude 10° 19:15:54 10° 1° (N) 1,762 5.5 -6.9°
Maximum altitude 19:19:35 41° 73° (ENE) 759 3.1 -7.4°
Drops below altitude 10° 19:23:13 10° 145° (SE) 1,743 4.9 -8.0°
Sets 19:25:26 0° 153° (SSE) 2,624 5.9 -8.3°
Enters shadow 19:25:27 - 153° (SSE) 2,634 5.9 -8.3°
